Wind_Speed
20 21 22 22 23 24 25 25 25 23 23 21 23 23 23 23 23 23 24 24 24 25 25 25 25 25 25 25 24 24 24 24 23 24 25 26 27 29 29 29 30 32 33 34
21 21 22 23 24 25 25 25 25 24 23 22 23 23 23 23 23 24 24 25 25 25 25 24 24 24 24 23 23 23 23 23 23 24 25 26 26 27 28 28 28 30 31 32
22 22 23 23 22 23 24 24 25 25 24 24 23 23 23 23 24 24 24 25 25 26 25 25 24 24 23 22 22 22 22 22 23 24 25 25 26 28 28 29 29 29 28 29
23 23 23 21 21 22 23 23 24 24 25 26 25 24 24 23 23 24 24 25 25 26 26 24 23 23 22 22 22 22 22 22 23 24 24 25 26 28 28 28 27 28 28 28
23 23 23 21 21 22 22 22 23 24 25 26 26 25 25 25 24 24 24 24 24 25 25 23 22 22 22 22 22 23 22 22 23 24 23 24 25 27 27 26 27 27 27 27
24 24 23 21 21 22 23 22 23 24 24 25 25 25 24 25 25 25 24 24 25 24 24 23 22 22 21 21 22 22 23 23 23 23 24 24 25 26 25 25 25 25 26 26
24 24 23 22 22 23 23 23 23 23 23 24 23 24 24 24 24 25 25 25 25 24 23 23 23 22 21 21 21 22 22 22 23 24 24 24 24 23 22 21 22 22 24 25
24 24 23 23 23 23 23 23 23 23 23 23 23 23 23 24 24 24 25 25 25 23 22 22 23 22 21 21 21 21 21 21 21 22 22 22 22 22 20 19 20 21 23 24
24 24 24 24 24 23 23 22 22 22 23 23 23 23 23 23 24 24 24 24 24 22 21 21 21 21 21 21 21 21 20 20 20 20 20 21 21 20 21 21 21 22 23 23
23 23 23 23 23 23 23 23 23 22 22 22 23 24 24 23 24 23 23 23 23 22 21 20 20 21 21 21 20 20 19 19 19 19 19 19 19 20 20 21 22 21 21 21
22 21 22 23 23 23 23 23 23 23 23 23 23 23 23 23 23 23 23 23 22 21 20 19 19 20 20 21 20 20 19 19 18 17 17 17 17 19 20 21 21 20 20 20
20 20 22 22 22 22 23 23 23 22 22 22 23 23 23 23 23 23 22 22 21 20 19 19 19 19 19 19 19 19 18 17 17 17 16 16 17 17 18 18 19 19 19 19
20 21 21 21 22 23 23 23 22 22 22 22 23 23 22 22 22 22 22 21 20 20 19 19 19 18 17 17 16 16 16 16 16 16 16 16 15 15 15 16 17 17 17 16
21 22 21 21 21 22 22 22 22 22 22 22 22 23 23 22 21 21 21 19 19 19 19 18 17 16 15 15 15 15 15 15 15 15 15 15 15 15 14 14 14 14 13 13
22 22 21 21 21 22 22 22 22 22 22 22 23 23 22 22 22 21 19 19 19 19 18 17 17 15 14 14 13 14 14 14 14 14 14 14 14 13 13 13 12 12 11 11
22 22 22 22 22 22 22 22 22 22 23 23 23 23 22 22 22 20 19 19 18 18 17 16 15 14 14 13 13 13 13 13 13 14 13 13 13 13 13 13 12 12 11 11
21 21 21 22 22 23 23 23 23 23 23 23 23 23 22 22 21 20 19 19 18 17 15 15 14 13 13 13 13 12 12 12 12 12 12 12 13 13 13 12 12 12 12 12
21 21 21 21 22 22 22 22 22 23 24 24 23 22 21 21 20 19 18 17 17 16 15 14 13 13 13 12 12 12 12 12 12 11 12 13 13 13 13 12 12 12 12 12
21 21 21 22 22 22 22 21 21 22 23 23 22 21 20 20 18 17 16 15 15 15 14 13 13 12 12 12 12 12 11 11 11 11 12 12 12 12 12 11 11 11 11 11
21 22 22 22 22 22 21 21 21 21 21 20 20 19 19 18 17 16 16 15 14 14 13 13 13 13 13 12 12 12 11 11 11 11 11 11 12 12 11 10 10 10 10 10
21 22 22 22 22 21 21 20 20 20 19 19 18 17 16 16 16 16 16 15 15 14 13 13 13 13 12 12 12 12 12 12 11 11 11 11 11 11 10 9 10 10 10 9
21 21 22 22 21 21 20 20 19 19 18 17 17 16 15 14 14 14 14 15 15 14 13 12 12 12 12 12 12 12 12 12 12 12 12 11 11 10 9 9 9 9 8 8
20 20 21 21 21 20 20 19 18 18 17 16 15 15 14 13 12 12 12 12 13 12 12 12 12 12 12 12 11 11 12 12 12 12 12 11 10 10 10 9 9 9 8 8
20 20 21 20 20 20 19 18 18 17 17 16 15 14 13 12 11 11 11 12 12 12 12 11 12 12 13 12 12 11 11 12 12 12 12 11 10 10 10 9 9 9 9 9
21 21 20 20 19 18 18 18 18 17 16 15 14 13 12 12 11 12 12 12 12 13 12 12 12 12 12 11 12 12 11 11 11 11 12 11 11 10 10 9 9 9 9 9
21 21 20 19 18 18 18 18 18 17 16 15 14 14 13 12 12 12 12 12 12 13 12 12 11 11 11 10 10 10 10 10 10 10 10 10 10 10 9 9 9 9 9 8
21 20 19 18 18 18 17 17 17 16 15 15 14 14 13 13 13 13 13 13 12 12 12 11 10 10 10 10 10 9 10 10 9 9 9 10 10 9 9 9 9 8 8 8
Wind_Direction
288 283 281 278 277 278 280 282 284 287 289 288 284 282 282 283 284 283 282 282 281 280 282 284 284 283 283 282 276 272 272 271 268 265 266 265 266 267 267 268 268 267 266 265
288 284 283 282 281 282 282 282 284 285 286 288 284 283 282 284 284 284 283 283 282 280 282 284 285 283 281 279 276 272 271 271 270 269 268 266 268 269 270 271 272 271 268 265
289 285 283 283 285 284 285 285 285 285 286 285 283 283 284 284 286 287 287 286 284 283 283 284 284 283 282 279 275 271 269 270 269 268 267 268 269 271 271 272 274 273 269 266
291 287 285 289 287 286 287 287 286 287 285 284 283 281 282 284 287 289 290 288 286 284 283 282 282 282 282 281 277 273 272 273 271 266 268 270 272 273 273 272 272 270 268 268
292 289 288 289 291 290 289 290 288 287 286 284 283 282 283 285 287 291 290 289 288 285 283 281 280 281 282 281 278 276 275 275 271 265 267 271 274 275 274 272 271 269 269 269
291 290 290 293 292 291 291 292 291 289 288 286 284 284 284 285 288 290 291 291 290 288 283 280 281 282 281 280 277 276 275 274 273 271 270 270 272 273 273 273 272 272 271 270
291 290 290 293 292 291 292 295 293 291 291 289 286 285 285 286 289 291 290 291 292 290 284 278 278 281 281 281 278 275 275 276 275 273 271 270 270 272 273 274 273 272 272 273
291 290 291 291 289 290 291 293 293 292 291 289 287 287 288 288 290 290 290 291 292 290 285 280 279 281 281 278 277 277 278 278 276 273 273 270 269 269 271 273 275 275 276 275
287 289 290 289 288 288 291 293 293 292 292 290 289 289 289 290 291 291 290 291 291 288 284 280 279 280 281 279 278 278 277 276 274 275 274 270 270 270 271 271 275 277 278 277
286 288 288 288 289 288 290 292 293 292 292 292 291 291 290 290 292 292 290 290 291 287 282 280 280 280 281 280 279 278 276 275 275 275 274 274 272 273 274 274 275 277 277 275
287 289 288 287 288 287 289 290 292 293 293 292 292 292 292 292 292 292 291 290 291 288 283 281 282 284 282 280 277 276 276 276 274 273 273 275 276 278 277 277 278 278 278 276
289 291 290 288 287 287 288 289 291 293 293 293 292 292 292 293 292 291 290 289 289 288 285 282 283 285 282 278 275 274 273 270 270 271 271 275 279 283 283 283 282 281 281 280
289 291 291 290 288 288 289 289 291 292 293 293 292 291 292 294 293 291 289 288 287 286 287 285 282 282 279 277 274 271 268 268 268 269 271 275 280 285 286 285 286 286 284 283
289 291 291 291 290 289 289 288 289 291 292 294 293 291 292 293 292 291 290 286 285 286 286 285 280 278 277 274 270 267 269 268 270 273 275 279 281 283 285 289 288 286 285 285
288 289 289 291 291 290 289 289 288 289 291 294 295 293 292 292 291 289 289 286 285 286 284 281 278 276 276 272 269 268 270 271 272 275 277 279 280 282 283 285 285 285 286 287
287 288 288 290 292 291 290 289 289 289 290 293 295 294 293 291 289 286 284 283 283 282 280 277 276 275 274 273 274 273 273 273 276 276 277 277 280 283 285 285 283 283 284 286
288 289 290 290 291 292 291 289 288 290 292 294 295 294 292 290 286 283 280 279 279 278 276 274 273 274 273 272 271 271 272 274 279 280 277 278 280 284 286 284 282 282 283 283
290 292 292 292 293 294 292 290 289 290 292 294 294 293 291 289 285 280 277 276 276 275 273 273 274 274 271 271 270 270 271 274 278 279 281 283 281 283 283 281 281 282 283 281
292 293 295 296 295 295 293 292 291 292 293 293 292 291 290 288 284 278 274 273 274 273 271 271 271 270 268 268 268 269 271 274 275 278 282 285 283 284 285 284 283 284 285 283
293 294 296 298 297 295 294 292 292 294 295 295 293 290 288 287 284 276 271 271 272 272 269 269 270 269 268 268 268 268 270 271 274 278 282 285 285 284 282 281 283 284 286 284
293 294 295 297 296 295 293 293 294 295 295 295 293 291 288 286 283 275 269 267 268 269 270 271 270 267 265 267 268 269 269 270 272 275 279 282 282 281 279 279 280 282 283 280
294 294 294 296 296 295 293 294 294 295 294 293 291 289 287 284 282 278 269 266 265 267 270 272 269 265 266 269 268 267 267 268 272 275 276 276 276 275 276 278 279 281 279 273
296 295 295 295 296 296 294 293 292 293 292 290 289 286 283 280 277 276 271 266 265 267 270 271 267 264 267 271 270 268 266 268 272 274 273 272 273 275 277 278 276 273 271 269
297 297 296 295 295 295 294 291 290 290 289 288 286 284 280 273 270 271 269 266 265 267 270 271 267 265 265 267 269 271 272 270 268 268 267 267 270 275 275 274 270 268 267 267
298 297 298 297 296 295 292 290 289 288 286 284 282 280 275 269 267 268 269 269 268 269 268 268 267 266 264 265 269 272 272 270 266 265 264 263 267 270 268 267 266 266 264 263
299 297 295 295 295 295 293 290 287 285 283 281 280 276 272 268 269 268 268 269 268 268 266 263 263 263 264 266 269 270 269 268 267 265 261 262 265 264 265 265 265 262 260 259
297 296 294 292 292 292 292 290 287 284 281 279 277 274 270 267 268 267 266 267 267 265 261 258 259 261 264 266 268 266 265 264 264 262 259 260 260 260 264 267 267 262 258 254
Height
5604 5603 5601 5600 5599 5597 5595 5594 5593 5592 5590 5588 5585 5583 5582 5580 5578 5576 5574 5572 5570 5569 5567 5565 5563 5561 5558 5556 5554 5553 5553 5552 5551 5551 5551 5551 5551 5551 5550 5550 5550 5550 5551 5551
5598 5596 5594 5593 5593 5591 5589 5587 5585 5584 5584 5581 5578 5577 5575 5573 5571 5569 5567 5565 5563 5561 5559 5557 5555 5553 5551 5549 5547 5546 5546 5545 5545 5545 5544 5544 5544 5544 5543 5543 5543 5543 5542 5542
5591 5589 5587 5587 5586 5584 5582 5581 5579 5577 5577 5574 5572 5570 5568 5567 5565 5562 5560 5558 5556 5554 5551 5550 5548 5545 5543 5542 5541 5539 5539 5538 5538 5538 5538 5538 5537 5537 5536 5536 5535 5534 5534 5534
5584 5583 5581 5584 5579 5577 5575 5574 5572 5570 5569 5567 5565 5563 5561 5560 5558 5556 5553 5551 5548 5546 5544 5543 5541 5539 5537 5535 5534 5533 5532 5532 5532 5532 5532 5531 5531 5530 5529 5529 5528 5528 5527 5527
5577 5575 5574 5575 5573 5570 5568 5567 5565 5563 5561 5560 5558 5557 5555 5553 5550 5548 5546 5544 5541 5539 5537 5535 5534 5532 5530 5529 5527 5526 5526 5526 5525 5526 5525 5525 5525 5523 5522 5522 5521 5521 5520 5520
5571 5568 5568 5569 5566 5563 5562 5561 5559 5556 5554 5552 5551 5550 5549 5546 5543 5541 5539 5537 5534 5532 5530 5528 5527 5526 5524 5523 5521 5520 5520 5519 5519 5519 5518 5518 5518 5517 5516 5515 5515 5514 5513 5513
5565 5562 5561 5562 5559 5557 5557 5556 5552 5549 5547 5545 5544 5543 5541 5539 5536 5534 5532 5530 5527 5524 5523 5521 5520 5519 5518 5516 5515 5514 5514 5513 5512 5512 5512 5511 5511 5510 5509 5509 5508 5507 5507 5506
5558 5556 5558 5555 5552 5551 5549 5547 5545 5542 5541 5539 5537 5535 5533 5531 5529 5527 5525 5522 5520 5518 5516 5515 5514 5513 5511 5510 5509 5508 5507 5506 5506 5505 5505 5504 5504 5503 5503 5502 5502 5501 5500 5499
5552 5553 5550 5547 5545 5544 5542 5540 5538 5536 5534 5532 5530 5528 5526 5524 5522 5520 5517 5515 5513 5511 5509 5508 5507 5506 5505 5504 5503 5502 5501 5500 5499 5499 5498 5498 5497 5497 5496 5496 5495 5494 5493 5492
5545 5544 5542 5540 5538 5537 5535 5533 5531 5529 5527 5525 5523 5521 5519 5517 5515 5513 5510 5508 5506 5504 5503 5502 5501 5499 5499 5498 5497 5496 5495 5494 5494 5493 5492 5491 5491 5490 5490 5489 5489 5487 5486 5485
5538 5537 5535 5533 5531 5530 5528 5527 5525 5523 5520 5518 5516 5514 5512 5510 5508 5506 5504 5502 5500 5498 5497 5496 5495 5493 5492 5491 5491 5490 5489 5489 5488 5487 5487 5486 5485 5484 5484 5483 5482 5481 5480 5478
5532 5530 5528 5527 5525 5523 5522 5520 5518 5516 5514 5512 5510 5508 5505 5503 5501 5499 5497 5495 5494 5492 5491 5490 5489 5487 5486 5485 5485 5484 5484 5483 5483 5482 5482 5481 5480 5479 5477 5476 5475 5474 5472 5471
5525 5523 5522 5520 5518 5517 5515 5513 5512 5510 5508 5506 5503 5501 5499 5497 5495 5493 5491 5489 5488 5486 5485 5484 5483 5482 5481 5480 5479 5479 5479 5478 5478 5477 5477 5476 5475 5474 5472 5471 5469 5468 5467 5465
5518 5517 5516 5514 5512 5510 5509 5507 5505 5504 5502 5499 5497 5494 5492 5490 5489 5487 5485 5483 5482 5481 5479 5479 5478 5477 5476 5475 5475 5474 5474 5473 5473 5473 5472 5471 5470 5469 5468 5467 5465 5463 5462 5461
5512 5511 5509 5508 5506 5504 5502 5500 5499 5497 5495 5493 5490 5488 5486 5484 5482 5481 5479 5477 5476 5475 5474 5474 5473 5472 5471 5471 5470 5470 5469 5469 5468 5468 5467 5467 5466 5464 5463 5462 5461 5460 5459 5457
5506 5504 5503 5501 5499 5497 5495 5494 5492 5490 5489 5486 5484 5482 5479 5478 5476 5474 5473 5472 5471 5470 5469 5469 5468 5468 5467 5466 5466 5465 5465 5465 5464 5464 5463 5462 5461 5460 5459 5458 5457 5456 5455 5454
5499 5498 5496 5495 5493 5490 5488 5487 5485 5484 5482 5480 5478 5475 5473 5471 5469 5468 5467 5466 5466 5465 5464 5464 5463 5463 5463 5462 5462 5461 5461 5460 5460 5459 5459 5458 5457 5456 5455 5454 5454 5452 5451 5450
5492 5491 5489 5488 5486 5483 5481 5479 5478 5476 5475 5473 5471 5468 5466 5464 5463 5462 5461 5460 5460 5460 5459 5459 5459 5459 5458 5458 5458 5458 5457 5457 5456 5456 5455 5454 5453 5452 5451 5450 5450 5449 5448 5447
5486 5485 5483 5481 5479 5477 5475 5473 5471 5469 5468 5466 5463 5462 5459 5457 5456 5455 5455 5455 5455 5454 5454 5454 5454 5454 5454 5454 5454 5454 5453 5453 5453 5452 5451 5450 5449 5448 5447 5447 5446 5445 5444 5444
5480 5478 5476 5474 5472 5470 5468 5466 5465 5463 5461 5459 5457 5455 5453 5451 5450 5449 5449 5450 5450 5449 5449 5450 5450 5450 5450 5450 5449 5449 5449 5449 5449 5448 5448 5447 5446 5445 5444 5443 5443 5442 5441 5440
5473 5471 5470 5468 5466 5464 5462 5460 5459 5457 5455 5453 5451 5449 5448 5446 5445 5444 5444 5445 5445 5445 5445 5445 5445 5445 5445 5445 5445 5445 5445 5445 5445 5445 5444 5443 5442 5442 5441 5440 5440 5439 5438 5438
5467 5465 5463 5461 5459 5457 5456 5454 5452 5451 5449 5447 5446 5444 5443 5441 5440 5440 5440 5440 5440 5440 5440 5440 5440 5440 5441 5441 5441 5441 5441 5441 5441 5441 5440 5440 5439 5438 5438 5437 5437 5436 5435 5435
5460 5458 5457 5455 5453 5451 5449 5448 5446 5445 5443 5442 5440 5439 5438 5437 5436 5436 5436 5435 5435 5436 5436 5436 5436 5436 5436 5436 5436 5437 5437 5437 5437 5436 5436 5436 5436 5435 5435 5434 5434 5433 5433 5433
5454 5452 5450 5448 5447 5445 5443 5442 5440 5439 5438 5437 5435 5434 5433 5432 5432 5432 5431 5431 5431 5431 5431 5431 5431 5432 5432 5432 5432 5432 5432 5432 5432 5432 5432 5432 5432 5432 5432 5431 5431 5431 5431 5431
5447 5446 5444 5442 5440 5439 5437 5436 5435 5434 5432 5431 5431 5430 5429 5428 5428 5428 5427 5427 5427 5427 5427 5427 5427 5428 5428 5428 5428 5428 5428 5428 5428 5428 5428 5429 5429 5429 5428 5428 5428 5428 5428 5428
5441 5439 5437 5436 5434 5433 5431 5430 5429 5428 5427 5426 5426 5425 5424 5424 5424 5424 5423 5423 5423 5423 5423 5423 5423 5424 5424 5424 5424 5424 5424 5424 5424 5425 5425 5425 5425 5426 5426 5426 5426 5426 5426 5426
5434 5433 5431 5429 5428 5426 5425 5424 5423 5422 5422 5421 5421 5420 5420 5420 5419 5419 5419 5419 5419 5419 5419 5419 5420 5420 5420 5420 5420 5420 5421 5421 5421 5422 5422 5422 5422 5423 5423 5423 5423 5423 5423 5423